Tiempo cada hora Madrid

Hoy, 2 Agosto, Lunes

Tiempo Temperatura Precipitaciones Viento Presión Humedad
00:00 +21°C° 0 mm 3 mps 706 mmHg 33%
01:00 +20°C° 0 mm 3 mps 706 mmHg 34%
02:00 +19°C° 0 mm 3 mps 705 mmHg 36%
03:00 +19°C° 0 mm 3 mps 705 mmHg 37%
04:00 +19°C° 0 mm 3 mps 705 mmHg 38%
05:00 +19°C° 0 mm 3 mps 706 mmHg 40%
06:00 +18°C° 0 mm 3 mps 706 mmHg 42%
07:00 +20°C° 0 mm 2 mps 706 mmHg 40%
08:00 +21°C° 0 mm 2 mps 706 mmHg 39%
09:00 +24°C° 0 mm 2 mps 707 mmHg 38%
10:00 +26°C° 0 mm 2 mps 707 mmHg 33%
11:00 +27°C° 0 mm 2 mps 707 mmHg 28%
12:00 +29°C° 0 mm 2 mps 707 mmHg 24%
13:00 +29°C° 0 mm 2 mps 706 mmHg 22%
14:00 +30°C° 0 mm 2 mps 706 mmHg 21%
15:00 +31°C° 0 mm 2 mps 706 mmHg 19%
16:00 +31°C° 0 mm 2 mps 706 mmHg 19%
17:00 +31°C° 0 mm 2 mps 705 mmHg 19%
18:00 +31°C° 0 mm 2 mps 705 mmHg 19%
19:00 +29°C° 0 mm 1 mps 705 mmHg 22%
20:00 +28°C° 0 mm 1 mps 706 mmHg 24%
21:00 +27°C° 0 mm 1 mps 706 mmHg 26%
22:00 +26°C° 0 mm 2 mps 706 mmHg 30%
23:00 +25°C° 0 mm 2 mps 706 mmHg 34%

Mañana, 3 Agosto, Martes

Tiempo Temperatura Precipitaciones Viento Presión Humedad
00:00 +24°C° 0 mm 3 mps 706 mmHg 38%
01:00 +24°C° 0 mm 3 mps 706 mmHg 45%
02:00 +23°C° 0 mm 2 mps 706 mmHg 52%
03:00 +21°C° 0 mm 2 mps 706 mmHg 59%
04:00 +20°C° 0 mm 2 mps 706 mmHg 60%
05:00 +20°C° 0 mm 2 mps 707 mmHg 61%
06:00 +20°C° 0 mm 2 mps 707 mmHg 62%
07:00 +23°C° 0 mm 2 mps 707 mmHg 56%
08:00 +24°C° 0 mm 2 mps 708 mmHg 50%
09:00 +26°C° 0 mm 1 mps 708 mmHg 44%
10:00 +28°C° 0 mm 2 mps 708 mmHg 38%
11:00 +30°C° 0 mm 3 mps 707 mmHg 31%
12:00 +33°C° 0 mm 4 mps 707 mmHg 25%
13:00 +34°C° 0 mm 4 mps 707 mmHg 22%
14:00 +34°C° 0 mm 4 mps 706 mmHg 20%
15:00 +35°C° 0 mm 5 mps 706 mmHg 18%
16:00 +35°C° 0 mm 5 mps 705 mmHg 18%
17:00 +35°C° 0 mm 5 mps 705 mmHg 17%
18:00 +35°C° 0 mm 5 mps 705 mmHg 17%
19:00 +33°C° 0 mm 5 mps 705 mmHg 19%
20:00 +32°C° 0 mm 5 mps 705 mmHg 21%
21:00 +30°C° 0 mm 4 mps 705 mmHg 23%
22:00 +29°C° 0 mm 4 mps 705 mmHg 25%
23:00 +28°C° 0 mm 4 mps 705 mmHg 27%

Pasado mañana, 4 Agosto, Miércoles

Tiempo Temperatura Precipitaciones Viento Presión Humedad
00:00 +27°C° 0 mm 4 mps 705 mmHg 30%
01:00 +26°C° 0 mm 4 mps 705 mmHg 33%
02:00 +25°C° 0 mm 3 mps 705 mmHg 37%
03:00 +25°C° 0 mm 3 mps 705 mmHg 40%
04:00 +24°C° 0 mm 3 mps 705 mmHg 43%
05:00 +22°C° 0 mm 3 mps 705 mmHg 47%
06:00 +23°C° 0 mm 2 mps 705 mmHg 50%
07:00 +24°C° 0 mm 2 mps 706 mmHg 46%
08:00 +25°C° 0 mm 2 mps 706 mmHg 43%
09:00 +27°C° 0 mm 2 mps 707 mmHg 39%
10:00 +28°C° 0 mm 2 mps 707 mmHg 35%
11:00 +30°C° 0 mm 3 mps 707 mmHg 31%
12:00 +31°C° 0 mm 3 mps 707 mmHg 27%
13:00 +33°C° 0 mm 4 mps 707 mmHg 24%
14:00 +33°C° 0 mm 4 mps 707 mmHg 20%
15:00 +34°C° 0 mm 5 mps 706 mmHg 17%
16:00 +34°C° 0 mm 5 mps 707 mmHg 17%
17:00 +33°C° 0 mm 5 mps 707 mmHg 17%
18:00 +33°C° 0 mm 5 mps 707 mmHg 17%
19:00 +32°C° 0 mm 5 mps 707 mmHg 18%
20:00 +29°C° 0 mm 4 mps 707 mmHg 20%
21:00 +27°C° 0 mm 3 mps 707 mmHg 21%
22:00 +26°C° 0 mm 3 mps 707 mmHg 24%
23:00 +26°C° 0 mm 3 mps 707 mmHg 27%

5 Agosto, Jueves

Tiempo Temperatura Precipitaciones Viento Presión Humedad
00:00 +25°C° 0 mm 3 mps 707 mmHg 29%
01:00 +24°C° 0 mm 2 mps 707 mmHg 33%
02:00 +23°C° 0 mm 2 mps 707 mmHg 36%
03:00 +23°C° 0 mm 2 mps 707 mmHg 39%
04:00 +21°C° 0 mm 2 mps 707 mmHg 42%
05:00 +22°C° 0 mm 1 mps 707 mmHg 44%
06:00 +22°C° 0 mm 1 mps 707 mmHg 47%
07:00 +24°C° 0 mm 1 mps 707 mmHg 43%
08:00 +26°C° 0 mm 1 mps 707 mmHg 40%
09:00 +28°C° 0 mm 1 mps 708 mmHg 36%
10:00 +29°C° 0 mm 1 mps 708 mmHg 31%
11:00 +31°C° 0 mm 2 mps 707 mmHg 25%
12:00 +34°C° 0 mm 3 mps 707 mmHg 20%
13:00 +35°C° 0 mm 3 mps 707 mmHg 18%
14:00 +36°C° 0 mm 3 mps 706 mmHg 17%
15:00 +37°C° 0 mm 4 mps 706 mmHg 15%
16:00 +37°C° 0 mm 4 mps 705 mmHg 15%
17:00 +37°C° 0 mm 4 mps 705 mmHg 16%
18:00 +37°C° 0 mm 4 mps 705 mmHg 16%
19:00 +35°C° 0 mm 4 mps 705 mmHg 18%
20:00 +33°C° 0 mm 4 mps 705 mmHg 20%
21:00 +31°C° 0 mm 3 mps 705 mmHg 22%
22:00 +29°C° 0 mm 3 mps 705 mmHg 26%
23:00 +28°C° 0 mm 2 mps 704 mmHg 30%

6 Agosto, Viernes

Tiempo Temperatura Precipitaciones Viento Presión Humedad
00:00 +27°C° 0 mm 2 mps 704 mmHg 34%
01:00 +26°C° 0 mm 2 mps 704 mmHg 37%
02:00 +26°C° 0 mm 2 mps 704 mmHg 40%
03:00 +25°C° 0 mm 1 mps 703 mmHg 43%
04:00 +25°C° 0 mm 1 mps 703 mmHg 44%
05:00 +24°C° 0 mm 1 mps 703 mmHg 46%
06:00 +24°C° 0 mm 1 mps 703 mmHg 47%
07:00 +26°C° 0 mm 2 mps 704 mmHg 43%
08:00 +27°C° 0 mm 2 mps 704 mmHg 38%
09:00 +29°C° 0 mm 3 mps 704 mmHg 34%
10:00 +32°C° 0 mm 4 mps 704 mmHg 28%
11:00 +33°C° 0 mm 5 mps 704 mmHg 23%
12:00 +35°C° 0 mm 6 mps 704 mmHg 18%
13:00 +36°C° 0 mm 6 mps 703 mmHg 15%
14:00 +38°C° 0 mm 7 mps 703 mmHg 13%
15:00 +39°C° 0 mm 7 mps 702 mmHg 10%
16:00 +38°C° 0 mm 7 mps 702 mmHg 10%
17:00 +38°C° 0 mm 7 mps 701 mmHg 10%
18:00 +36°C° 0 mm 7 mps 701 mmHg 10%
19:00 +34°C° 0 mm 6 mps 701 mmHg 11%
20:00 +32°C° 0 mm 5 mps 701 mmHg 12%
21:00 +29°C° 0 mm 5 mps 701 mmHg 14%
22:00 +28°C° 0 mm 4 mps 701 mmHg 16%
23:00 +27°C° 0 mm 4 mps 701 mmHg 19%

7 Agosto, Sábado

Tiempo Temperatura Precipitaciones Viento Presión Humedad
00:00 +25°C° 0 mm 3 mps 701 mmHg 21%
01:00 +24°C° 0 mm 3 mps 701 mmHg 24%
02:00 +22°C° 0 mm 3 mps 701 mmHg 26%
03:00 +21°C° 0 mm 3 mps 701 mmHg 29%
04:00 +21°C° 0 mm 3 mps 701 mmHg 32%
05:00 +20°C° 0 mm 3 mps 701 mmHg 34%
06:00 +20°C° 0 mm 3 mps 701 mmHg 37%
07:00 +21°C° 0 mm 3 mps 702 mmHg 33%
08:00 +24°C° 0 mm 3 mps 702 mmHg 29%
09:00 +25°C° 0 mm 3 mps 703 mmHg 26%
10:00 +27°C° 0 mm 3 mps 703 mmHg 23%
11:00 +28°C° 0 mm 3 mps 703 mmHg 20%
12:00 +30°C° 0 mm 4 mps 703 mmHg 17%
13:00 +30°C° 0 mm 4 mps 703 mmHg 16%
14:00 +32°C° 0 mm 4 mps 703 mmHg 15%
15:00 +33°C° 0 mm 5 mps 702 mmHg 14%
16:00 +33°C° 0 mm 4 mps 702 mmHg 14%
17:00 +32°C° 0 mm 4 mps 702 mmHg 14%
18:00 +32°C° 0 mm 4 mps 702 mmHg 14%
19:00 +29°C° 0 mm 4 mps 703 mmHg 16%
20:00 +28°C° 0 mm 4 mps 703 mmHg 18%
21:00 +26°C° 0 mm 4 mps 703 mmHg 20%
22:00 +25°C° 0 mm 3 mps 704 mmHg 21%
23:00 +25°C° 0 mm 3 mps 704 mmHg 23%
Mostrar más

Necesitamos Su Consentimiento

Meteoprog y nuestros Proveedores de Servicios pueden almacenar y acceder a sus datos personales como cookies, identificadores de dispositivo u otras tecnologías similares de su dispositivo y procesar dichos datos para personalizar contenido y anuncios, además de ofrecer funciones de redes sociales y analizar el tráfico.

  • Almacenar y/o acceder a información en su dispositivo

    Se puede almacenar o acceder a cookies, identificadores de dispositivo u otra información de su dispositivo para los fines anteriormente indicados.

  • Anuncios y contenido personalizados, medición de anuncios y contenido, percepciones del público, y desarrollo de productos

    Los anuncios y el contenido pueden personalizarse en base a su perfil. Se pueden añadir más datos para personalizar mejor los anuncios y contenidos. Se puede medir el rendimiento de los anuncios y contenidos. Se puede obtener la percepción sobre el público que ha visto los anuncios y contenidos. Dichos datos pueden usarse para desarrollar o mejorar la experiencia del usuario, sistemas y software.

Al hacer clic en ‘Estoy De Acuerdo’ usted permitirá el uso de las cookies, identificadores de dispositivo, balizas web u otras tecnologías similares indicadas. Su configuración puede cambiarse desde el navegador de su dispositivo.

Para ciertos fines, los intereses legítimos pueden ser considerados por encima del consentimiento. Puede leer más sobre ello en nuestra Política de Privacidad y Cookies.